Lotnisko EPSD


Aktualna POGODA z lotniska w Goleniowie (EPSC)

EPSC 181830Z 14011KT 1600 SN BR SCT003 BKN012 OVC014 M04/M05 Q1015 R13/79//93


TAF EPSC 181730Z 1818/1918 15005KT 4000 -SN BR OVC007 TEMPO 1818/1822 1000 +SN BKN002 PROB40 TEMPO 1818/1822 2000 RASN -FZRA BECMG 1820/1822 25012KT 3500 -RA BR OVC012 TEMPO 1822/1906 1800 RASN BR OVC002 PROB40 1906/1910 BKN004 BECMG 1909/1911 19012KT TEMPO 1911/1918 1500 SN SNRA BKN004

Przed przylotem na lotnisko w Szczecinie-Dąbiu (EPSD) konieczne jest wcześniejsze uzyskanie zgody na lądowanie (PPR)

Znak ICAO: EPSD

Współrzędne lotniska: N532332 E0143802

Współrzędne ATZ: N532228 E0144207

ATZ lotniska: okrąg o promieniu 10km

Granice pionowe ATZ: GND/5500 ft (1676 m) AMSL

Łączność radiowa: Szczecin Radio na częstotliwości 122.2 MHz
Pas trawiasty: RWY 09R – 27L (900m x 50m)

Elewacja: 3 ft (1 m)

Pliki do wglądu lub pobrania:

Plik Opis Rozmiar pliku
pdf EPSD Szczecin Dąbie Dane opisowe
135 KB
pdf EPSD plan lotniska Drogi startowe w użyciu
198 KB
pdf EPSD krąd nadlotniskowy Zasady poruszania się po kręgu
100 KB
pdf Regulamin hangarowania Regulamin użytkowania hangaru Aeroklubu Szczecińskiego
108 KB